This demonstration page uses our WeatherBlox Daily Observations layout. Learn more.

Left ArrowRight Arrow

41.12389, -100.76542

Hourly Observations for December 26, 2017

Temp ( °F °C ) Dew Point ( °F °C ) Humidity (%) Winds ( mph kmh ) Pressure ( in mb ) Visibility ( mi km ) Precip ( " mm )
12:02 am 00:02 Mostly Cloudy with Light Snow 4 -15.6 -1 -18.3 80 80 NNE 5 7 30.71 1040 1 2 0.00 0.03
12:21 am 00:21 Cloudy with Light Snow 3 -16.1 -1 -18.3 83 83 NE 6 9 30.71 1040 2 3 0.01 0.25
12:28 am 00:28 Cloudy with Light Snow 3 -16.1 -1 -18.3 83 83 NNE 6 9 30.71 1040 3 5 0.01 0.25
1:53 am 01:53 Cloudy with Light Snow 2 -16.7 -2 -18.9 83 83 NNE 5 7 30.58 1035 6 10 0.00 0.03
2:53 am 02:53 Mostly Clear 0 -17.8 -4 -20 83 83 NE 3 6 30.58 1036 10 16 0.00 0.03
3:53 am 03:53 Cloudy -2 -18.9 -6 -21.1 83 83 N 3 6 30.62 1037 10 16 0.00 0.00
4:53 am 04:53 Cloudy with Light Snow -2 -18.9 -7 -21.7 79 79 Calm 30.61 1037 9 14 0.00 0.03
5:53 am 05:53 Cloudy -4 -20 -8 -22.2 83 83 Calm 30.65 1038 10 16 0.00 0.03
6:53 am 06:53 Cloudy with Light Snow -2 -18.9 -6 -21.1 83 83 Calm 30.66 1038 4 6 0.00 0.03
7:53 am 07:53 Cloudy with Light Snow -6 -21.1 -9 -22.8 86 86 Calm 30.68 1039 5 8 0.00 0.03
8:53 am 08:53 Mostly Sunny -8 -22.2 -12 -24.4 82 82 N 3 6 30.70 1040 10 16 0.00 0.03
9:12 am 09:12 Sunny with Mist and Fog -7 -21.7 -10 -23.3 87 87 Calm 30.83 1044 2 2 0.00 0.00
9:16 am 09:16 Sunny with Mist and Fog -8 -22.2 -11 -23.9 86 86 Calm 30.89 1046 1 1 0.00 0.00
9:29 am 09:29 Sunny with Mist and Fog -6 -21.1 -9 -22.8 86 86 Calm 30.86 1045 1 2 0.00 0.00
9:38 am 09:38 Sunny with Mist and Fog -6 -21.1 -10 -23.3 83 83 WSW 5 7 30.86 1045 3 4 0.00 0.00
9:45 am 09:45 Sunny -3 -19.4 -7 -21.7 82 82 Calm 30.83 1044 7 11 0.00 0.00
9:53 am 09:53 Hazy -3 -19.4 -8 -22.2 79 79 WNW 3 6 30.71 1040 6 10 0.00 0.00
10:53 am 10:53 Sunny 3 -16.1 -5 -20.6 69 69 Calm 30.71 1040 10 16 0.00 0.00
11:53 am 11:53 Sunny 6 -14.4 -4 -20 63 63 Calm 30.70 1040 10 16 0.00 0.00
12:53 pm 12:53 Cloudy 4 -15.6 -3 -19.4 73 73 Calm 30.68 1039 10 16 0.00 0.00
1:53 pm 13:53 Cloudy 8 -13.3 -3 -19.4 60 60 Calm 30.65 1038 10 16 0.00 0.00
2:53 pm 14:53 Sunny 8 -13.3 -3 -19.4 60 60 Calm 30.65 1038 10 16 0.00 0.00
3:53 pm 15:53 Sunny 6 -14.4 -2 -18.9 69 69 SSW 5 7 30.66 1038 10 16 0.00 0.00
4:53 pm 16:53 Sunny 4 -15.6 -3 -19.4 73 73 SSW 5 7 30.68 1039 10 16 0.00 0.00
6:53 pm 18:53 Clear -4 -20 -7 -21.7 86 86 Calm 30.71 1040 10 16 0.00 0.00
7:53 pm 19:53 Clear -8 -22.2 -10 -23.3 91 91 Calm 30.75 1041 7 11 0.00 0.00
8:32 pm 20:32 Clear with Mist and Fog -7 -21.7 -11 -23.9 82 82 Calm 30.89 1046 2 3 0.00 0.00
8:36 pm 20:36 Clear with Mist and Fog -7 -21.7 -10 -23.3 87 87 Calm 30.89 1046 1 1 0.00 0.00
8:44 pm 20:44 Clear with Mist and Fog -8 -22.2 -12 -24.4 82 82 E 3 6 30.92 1047 2 2 0.00 0.00
8:47 pm 20:47 Hazy -8 -22 -13 -25 77 77 E 3 6 30.92 1047 3 5 0.00 0.00
8:53 pm 20:53 Clear -8 -22.2 -13 -25 78 78 Calm 30.77 1042 10 16 0.00 0.00
9:53 pm 21:53 Clear -9 -22.8 -14 -25.6 78 78 Calm 30.75 1041 10 16 0.00 0.00
10:09 pm 22:09 Hazy -8 -22.2 -14 -25.6 74 74 ESE 3 6 30.89 1046 3 4 0.00 0.00
10:17 pm 22:17 Clear -8 -22.2 -13 -25 78 78 E 3 6 30.89 1046 10 16 0.00 0.00
10:53 pm 22:53 Clear -8 -22.2 -14 -25.6 74 74 E 5 7 30.74 1041 10 16 0.00 0.00
11:53 pm 23:53 Clear -9 -22.8 -15 -26.1 75 75 Calm 30.73 1041 10 16 0.00 0.00

Powered by AerisWeather